SENTINEL-2A
Last updated on Mon Jun 22 2026 00:02:51 GMT+0000 (Coordinated Universal Time)
1 40697U 15028A 26172.48042995 .00000285 00000+0 12533-3 0 9992
2 40697 98.5679 247.2715 0001119 92.5199 267.6112 14.30817044574347
Next 0 passes for location: London (51.5072 / 0.1276)
No passes found over London.